Regional Weather Roundup
Issued by NWS

Home | Current Version | Previous Version | Graphics & Text | Print | Product List | Glossary On
Versions: 1 2 3 4 5 6 7 8 9 10 11 12 13 14 15 16 17 18 19 20 21 22 23 24 25 26 27 28 29 30 31 32 33 34 35 36 37 38 39 40 41 42 43 44 45 46 47 48 49 50
000
ASUS43 KBIS 160802
RWRND

NORTH DAKOTA REGIONAL WEATHER ROUNDUP
NATIONAL WEATHER SERVICE BISMARCK ND
200 AM CST TUE JAN 16 2018

NOTE: "FAIR" INDICATES FEW OR NO CLOUDS BELOW 12,000 FEET WITH NO
SIGNIFICANT WEATHER AND/OR OBSTRUCTIONS TO VISIBILITY.


NDZ001>003-009>011-017-160900-
NORTHWEST NORTH DAKOTA

CITY           SKY/WX    TMP DP  RH WIND       PRES   REMARKS
WILLISTON      CLEAR    -16 -21  78 CALM      30.70F
MINOT          CLOUDY   -13 -20  71 SW9       30.73F WCI -31
MINOT AFB      CLOUDY   -18 -24  72 W8        30.72F WCI -36
$$

NDZ018>021-031>035-040>046-160900-
SOUTHWEST NORTH DAKOTA

CITY           SKY/WX    TMP DP  RH WIND       PRES   REMARKS
BISMARCK       CLEAR    -21 -26  77 CALM      30.82F
DICKINSON      CLEAR    -19 -25  73 S9        30.63F WCI -39
GARRISON         N/A    -20 -26  74 S3        30.74F
HETTINGER ARPT CLEAR    -18 -23  77 CALM      30.68F
$$

NDZ004>008-012>016-024-026-027-054-160900-
NORTHEAST NORTH DAKOTA

CITY           SKY/WX    TMP DP  RH WIND       PRES   REMARKS
GRAND FORKS    FAIR     -13 -19  75 NW7       30.83F WCI -29
GRND FRKS AFB  FAIR     -14 -22  67 NW8       30.82F WCI -31
DEVILS LAKE    FAIR     -16 -22  74 SW3       30.78F
$$

NDZ022-023-025-028>030-036>039-047>053-160900-
SOUTHEAST NORTH DAKOTA

CITY           SKY/WX    TMP DP  RH WIND       PRES   REMARKS
FARGO          CLOUDY   -11 -17  75 N14       30.82R WCI -33
JAMESTOWN      CLOUDY   -14 -19  79 NW8       30.77S WCI -31
$$





USA.gov is the U.S. government's official web portal to all federal, state and local government web resources and services.